Location: Abundant Grace Fellowship
(35.0349°N, 90.0924°W)
Time: 09:32:43
(UTC+00:00)

Cosmos 1733 Rocket - Pass Details

Date: 18 January 2026
Orbit: 596 x 621 km, 82.5° (Epoch: 9 February)

Event Time Altitude Azimuth Distance (km) Brightness Sun altitude
Rises 01:31:42 0° 345° (NNW) 2,881 6.6 -27.8°
Reaches altitude 10° 01:34:01 10° 338° (NNW) 1,968 5.8 -28.3°
Maximum altitude 01:38:07 42° 268° (W) 874 4.2 -29.2°
Drops below altitude 10° 01:42:09 10° 198° (SSW) 1,941 5.8 -30.0°
Sets 01:44:25 0° 191° (S) 2,835 6.6 -30.4°
